This is the latest recevied weather packets stored in our database for station/object KC5TXI. If no packets are shown the sender has not sent any weather packets the latest 10 day(s).
| Time | Temp. | Humidity | Pressure | Rain* | Wind** | Luminosity | Snow |
|---|---|---|---|---|---|---|---|
| 1787446029 | 38.33° C | 34% | 1013.9 hPa | 0 mm | - | 8 W/m² | - |
| 1787445725 | 38.33° C | 35% | 1014 hPa | 0 mm | - | 13 W/m² | - |
| 1787445421 | 38.33° C | 34% | 1014 hPa | 0 mm | - | 18 W/m² | - |
| 1787445116 | 38.33° C | 35% | 1014.1 hPa | 0 mm | - | 23 W/m² | - |
| 1787444812 | 38.89° C | 34% | 1014.1 hPa | 0 mm | - | 22 W/m² | - |
| 1787444509 | 38.89° C | 33% | 1014.1 hPa | 0 mm | - | 24 W/m² | - |
| 1787444203 | 38.89° C | 33% | 1014.2 hPa | 0 mm | - | 28 W/m² | - |
| 1787443903 | 39.44° C | 32% | 1014.5 hPa | 0 mm | - | 35 W/m² | - |
| 1787443602 | 39.44° C | 32% | 1014.3 hPa | 0 mm | - | 41 W/m² | - |
| 1787443297 | 39.44° C | 33% | 1014.2 hPa | 0 mm | - | 55 W/m² | - |
| 1787442997 | 39.44° C | 33% | 1014.4 hPa | 0 mm | - | 71 W/m² | - |
| 1787442693 | 40° C | 33% | 1014.6 hPa | 0 mm | - | 78 W/m² | - |
| 1787442389 | 40° C | 33% | 1014.7 hPa | 0 mm | - | 81 W/m² | - |
| 1787442088 | 40° C | 33% | 1014.7 hPa | 0 mm | - | 86 W/m² | - |
| 1787441784 | 39.44° C | 33% | 1014.6 hPa | 0 mm | - | 89 W/m² | - |
| 1787441479 | 40° C | 33% | 1014.6 hPa | 0 mm | - | 92 W/m² | - |
| 1787441174 | 40° C | 33% | 1014.5 hPa | 0 mm | - | 77 W/m² | - |
| 1787440870 | 40° C | 33% | 1014.5 hPa | 0 mm | - | 82 W/m² | - |
| 1787440570 | 40° C | 33% | 1014.3 hPa | 0 mm | - | 81 W/m² | - |
| 1787440266 | 40° C | 32% | 1014.3 hPa | 0 mm | - | 76 W/m² | - |
| 1787439962 | 40° C | 32% | 1014.2 hPa | 0 mm | - | 75 W/m² | - |
| 1787439658 | 40.56° C | 32% | 1014.4 hPa | 0 mm | - | 139 W/m² | - |
| 1787439354 | 40.56° C | 33% | 1014.2 hPa | 0 mm | - | 174 W/m² | - |
| 1787439049 | 40.56° C | 32% | 1014.1 hPa | 0 mm | - | 117 W/m² | - |
| 1787438745 | 40° C | 32% | 1014.4 hPa | 0 mm | - | 213 W/m² | - |
* Rain latest hour (hover to see other rain measurements)
** Current wind speed in m/s (hover to see current wind gust speed)